When you browse on this site, cookies collect data to enhance your experience and personalize the content and advertising you see.
Visit our Privacy Policy to learn more. By continuing to use the site, you agree to this use of cookies and data.
  • In Hungary
  • List of Countries
  • For 7 days
  • Water Temperature
  • Weather Map
  • News
  • Weather Widgets
  • user-avatar
    Login

    Hourly Weather Pilyuchenki

    Today, 13 December, Friday

    Time Temperature Precipitation Wind Pressure Humidity
    00:00 0°C° 0 mm 5 mps 741 mmHg 85%
    01:00 0°C° 0 mm 5 mps 741 mmHg 86%
    02:00 0°C° 0 mm 5 mps 741 mmHg 86%
    03:00 0°C° 0 mm 5 mps 741 mmHg 87%
    04:00 -1°C° 0 mm 4 mps 741 mmHg 89%
    05:00 -1°C° 0 mm 4 mps 740 mmHg 90%
    06:00 -1°C° 0 mm 4 mps 740 mmHg 90%
    07:00 -1°C° 0 mm 4 mps 740 mmHg 90%
    08:00 -1°C° 0 mm 4 mps 740 mmHg 90%
    09:00 -1°C° 0 mm 4 mps 740 mmHg 89%
    10:00 -1°C° 0 mm 5 mps 739 mmHg 87%
    11:00 -1°C° 0 mm 5 mps 739 mmHg 86%
    12:00 -1°C° 0 mm 5 mps 739 mmHg 85%
    13:00 -1°C° 0 mm 5 mps 739 mmHg 85%
    14:00 -1°C° 0 mm 5 mps 738 mmHg 85%
    15:00 -1°C° 0 mm 5 mps 738 mmHg 88%
    16:00 -1°C° 0 mm 5 mps 738 mmHg 91%
    17:00 -1°C° 0 mm 5 mps 737 mmHg 95%
    18:00 -1°C° 0 mm 5 mps 737 mmHg 94%
    19:00 -2°C° 0 mm 6 mps 737 mmHg 93%
    20:00 -2°C° 0 mm 6 mps 737 mmHg 93%
    21:00 -2°C° 0 mm 6 mps 737 mmHg 93%
    22:00 -2°C° 0 mm 6 mps 737 mmHg 92%
    23:00 -2°C° 0 mm 6 mps 737 mmHg 92%

    Tomorrow, 14 December, Saturday

    Time Temperature Precipitation Wind Pressure Humidity
    00:00 -2°C° 0 mm 6 mps 737 mmHg 89%
    01:00 -2°C° 0 mm 6 mps 737 mmHg 87%
    02:00 -2°C° 0 mm 6 mps 737 mmHg 84%
    03:00 -2°C° 0 mm 6 mps 737 mmHg 84%
    04:00 -2°C° 0 mm 6 mps 737 mmHg 84%
    05:00 -2°C° 0 mm 6 mps 737 mmHg 84%
    06:00 -2°C° 0 mm 6 mps 737 mmHg 84%
    07:00 -2°C° 0 mm 6 mps 737 mmHg 85%
    08:00 -2°C° 0 mm 6 mps 737 mmHg 85%
    09:00 -2°C° 0 mm 6 mps 737 mmHg 85%
    10:00 -1°C° 0 mm 6 mps 737 mmHg 85%
    11:00 -1°C° 0 mm 6 mps 737 mmHg 85%
    12:00 -1°C° 0 mm 6 mps 737 mmHg 85%
    13:00 -1°C° 0 mm 6 mps 737 mmHg 85%
    14:00 -1°C° 0 mm 6 mps 737 mmHg 85%
    15:00 -1°C° 0 mm 6 mps 737 mmHg 87%
    16:00 -1°C° 0 mm 6 mps 736 mmHg 89%
    17:00 -1°C° 0 mm 6 mps 736 mmHg 91%
    18:00 -1°C° 0 mm 6 mps 736 mmHg 91%
    19:00 -1°C° 0 mm 6 mps 736 mmHg 92%
    20:00 +1°C° 0 mm 6 mps 736 mmHg 92%
    21:00 +1°C° 0 mm 6 mps 736 mmHg 92%
    22:00 +1°C° 0 mm 6 mps 735 mmHg 92%
    23:00 +2°C° 0 mm 6 mps 735 mmHg 92%

    Day after tomorrow, 15 December, Sunday

    Time Temperature Precipitation Wind Pressure Humidity
    00:00 +2°C° 0.5 mm 6 mps 735 mmHg 92%
    01:00 +2°C° 0.5 mm 6 mps 734 mmHg 91%
    02:00 +2°C° 0.5 mm 5 mps 734 mmHg 91%
    03:00 +2°C° 0.1 mm 5 mps 734 mmHg 91%
    04:00 +2°C° 0.1 mm 5 mps 733 mmHg 90%
    05:00 +2°C° 0.1 mm 5 mps 733 mmHg 90%
    06:00 +2°C° 0.4 mm 6 mps 733 mmHg 89%
    07:00 +1°C° 0.4 mm 6 mps 734 mmHg 89%
    08:00 0°C° 0.4 mm 7 mps 734 mmHg 89%
    09:00 0°C° 0.1 mm 7 mps 735 mmHg 84%
    10:00 +1°C° 0.1 mm 6 mps 735 mmHg 79%
    11:00 +1°C° 0.1 mm 6 mps 736 mmHg 74%
    12:00 +1°C° 0 mm 6 mps 737 mmHg 76%
    13:00 +1°C° 0 mm 5 mps 737 mmHg 77%
    14:00 +1°C° 0 mm 5 mps 738 mmHg 78%
    15:00 0°C° 0 mm 5 mps 738 mmHg 78%
    16:00 0°C° 0 mm 4 mps 738 mmHg 79%
    17:00 0°C° 0 mm 4 mps 738 mmHg 79%
    18:00 0°C° 0 mm 5 mps 738 mmHg 81%
    19:00 0°C° 0 mm 5 mps 737 mmHg 84%
    20:00 +1°C° 0 mm 6 mps 737 mmHg 86%
    21:00 +1°C° 0.6 mm 6 mps 737 mmHg 85%
    22:00 +2°C° 0.6 mm 7 mps 737 mmHg 83%
    23:00 +3°C° 0.6 mm 7 mps 737 mmHg 82%

    16 December, Monday

    Time Temperature Precipitation Wind Pressure Humidity
    00:00 +2°C° 0 mm 7 mps 737 mmHg 82%
    01:00 +2°C° 0 mm 6 mps 738 mmHg 81%
    02:00 +1°C° 0 mm 6 mps 739 mmHg 81%
    03:00 +1°C° 0 mm 6 mps 739 mmHg 81%
    04:00 -1°C° 0 mm 6 mps 740 mmHg 80%
    05:00 -1°C° 0 mm 6 mps 740 mmHg 80%
    06:00 -1°C° 0 mm 6 mps 741 mmHg 80%
    07:00 -1°C° 0 mm 6 mps 741 mmHg 80%
    08:00 -1°C° 0 mm 6 mps 741 mmHg 80%
    09:00 -1°C° 0 mm 6 mps 742 mmHg 79%
    10:00 -1°C° 0 mm 6 mps 742 mmHg 79%
    11:00 -1°C° 0 mm 6 mps 743 mmHg 78%
    12:00 -1°C° 0 mm 6 mps 743 mmHg 77%
    13:00 0°C° 0 mm 5 mps 744 mmHg 77%
    14:00 +1°C° 0 mm 5 mps 744 mmHg 77%
    15:00 0°C° 0 mm 5 mps 744 mmHg 80%
    16:00 -1°C° 0 mm 4 mps 745 mmHg 83%
    17:00 -1°C° 0 mm 4 mps 745 mmHg 86%
    18:00 -1°C° 0 mm 3 mps 745 mmHg 86%
    19:00 -1°C° 0 mm 3 mps 745 mmHg 85%
    20:00 -1°C° 0 mm 3 mps 745 mmHg 85%
    21:00 -1°C° 0 mm 3 mps 745 mmHg 85%
    22:00 0°C° 0 mm 3 mps 745 mmHg 85%
    23:00 -1°C° 0 mm 4 mps 745 mmHg 85%

    17 December, Tuesday

    Time Temperature Precipitation Wind Pressure Humidity
    00:00 0°C° 0 mm 3 mps 745 mmHg 87%
    01:00 +1°C° 0 mm 3 mps 745 mmHg 90%
    02:00 +1°C° 0 mm 3 mps 745 mmHg 93%
    03:00 +2°C° 0.2 mm 3 mps 745 mmHg 94%
    04:00 +2°C° 0.2 mm 3 mps 744 mmHg 95%
    05:00 +2°C° 0.2 mm 3 mps 744 mmHg 96%
    06:00 +2°C° 0.1 mm 3 mps 744 mmHg 96%
    07:00 +2°C° 0.1 mm 3 mps 744 mmHg 97%
    08:00 +2°C° 0.1 mm 3 mps 744 mmHg 97%
    09:00 +3°C° 0.2 mm 2 mps 744 mmHg 97%
    10:00 +3°C° 0.2 mm 2 mps 745 mmHg 97%
    11:00 +3°C° 0.2 mm 2 mps 745 mmHg 97%
    12:00 +3°C° 0.3 mm 2 mps 744 mmHg 96%
    13:00 +3°C° 0.3 mm 2 mps 744 mmHg 96%
    14:00 +3°C° 0.3 mm 2 mps 744 mmHg 95%
    15:00 +2°C° 0 mm 3 mps 744 mmHg 95%
    16:00 +2°C° 0 mm 3 mps 744 mmHg 94%
    17:00 +2°C° 0 mm 3 mps 744 mmHg 94%
    18:00 +3°C° 0 mm 2 mps 744 mmHg 94%
    19:00 +3°C° 0 mm 2 mps 744 mmHg 95%
    20:00 +3°C° 0 mm 2 mps 744 mmHg 95%
    21:00 +3°C° 0 mm 2 mps 744 mmHg 95%
    22:00 +3°C° 0 mm 2 mps 744 mmHg 95%
    23:00 +2°C° 0 mm 2 mps 744 mmHg 96%

    18 December, Wednesday

    Time Temperature Precipitation Wind Pressure Humidity
    00:00 +2°C° 0 mm 2 mps 744 mmHg 96%
    01:00 +2°C° 0 mm 2 mps 743 mmHg 95%
    02:00 +2°C° 0 mm 2 mps 743 mmHg 95%
    03:00 +2°C° 0 mm 2 mps 743 mmHg 95%
    04:00 +2°C° 0 mm 2 mps 743 mmHg 95%
    05:00 +3°C° 0 mm 2 mps 743 mmHg 94%
    06:00 +2°C° 0 mm 2 mps 743 mmHg 94%
    07:00 +2°C° 0 mm 2 mps 742 mmHg 95%
    08:00 +2°C° 0 mm 2 mps 742 mmHg 95%
    09:00 +2°C° 0 mm 2 mps 743 mmHg 94%
    10:00 +3°C° 0 mm 2 mps 743 mmHg 93%
    11:00 +2°C° 0 mm 3 mps 743 mmHg 92%
    12:00 +3°C° 0 mm 3 mps 743 mmHg 92%
    13:00 +4°C° 0 mm 2 mps 742 mmHg 91%
    14:00 +4°C° 0 mm 2 mps 742 mmHg 91%
    15:00 +3°C° 0 mm 3 mps 742 mmHg 91%
    16:00 +3°C° 0 mm 3 mps 742 mmHg 92%
    17:00 +2°C° 0 mm 3 mps 742 mmHg 93%
    18:00 +2°C° 0 mm 3 mps 742 mmHg 93%
    19:00 +2°C° 0 mm 3 mps 741 mmHg 93%
    20:00 +1°C° 0 mm 4 mps 741 mmHg 93%
    21:00 +3°C° 0 mm 4 mps 741 mmHg 92%
    22:00 +3°C° 0 mm 4 mps 740 mmHg 92%
    23:00 +2°C° 0 mm 5 mps 740 mmHg 91%
    Show more